Tracking 35331 objects as of 14-Sep-2026
HD Live streaming from Space Station
objects crossing your sky now

STARLINK 1031


STARLINK 1031 is no longer on orbit
STARLINK 1031 is classified as:


NORAD ID: 44736
Int'l Code: 2019-074Z
Launch date: November 11, 2019
Source: United States (US)
Launch site: AIR FORCE EASTERN TEST RANGE (AFETR)
Decay date: 2026-04-09
Your satellite tracking list
Your tracking list is empty




NASA's NSSDC Master Catalog

Two Line Element Set (TLE):
1 44736U 19074Z   26099.80744145  .10672862  12529-4  31244-3 0  9996
2 44736  53.0202 318.4317 0008319 285.2600  74.7528 16.44652751354689
Source of the keplerian elements: AFSPC